Home > Weather > Harare > Past weeks

Flag for Zimbabwe Weather for the Past 2 Weeks in Harare, Zimbabwe

Now
55 °F

Clear.


Feels Like: 54 °F
Forecast: 50 / 79 °F
Wind: 6 mph from East

Location: Harare Kutsaga Airport

Current Time: Apr 29, 2016 at 2:02:24 AM

Latest Report: Apr 29, 2016 at 1:00 AM


Visibility: 10 mi

Pressure: 30.15 "Hg (25.24 "Hg at 1490m altitude)

Humidity: 82%

Dew Point: 50 °F

Location of HarareLocation

Historic Weather in Harare — Graph

°F

Harare Temperature Yesterday

Maximum temperature yesterday: 77 °F (at 2:00 PM)
Minimum temperature yesterday: 48 °F (at 6:00 AM)
Average temperature yesterday: 62 °F

High & Low Weather Summary for the Past Weeks

 TemperatureHumidityPressure
High82 °F (Apr 20, 1:00 PM)100% (Apr 14, 12:00 AM)30.36 "Hg (Apr 14, 12:00 AM)
Low48 °F (Apr 28, 6:00 AM)26% (Apr 23, 12:00 PM)30.12 "Hg (Apr 28, 3:00 PM)
Average67 °F67%30.25 "Hg
* Reported Midnight between Apr 13 and Apr 14 — Midnight between Apr 28 and Apr 29, Harare, Weather by CustomWeather, © 2016

Note: Actual official high and low records may vary slightly from our data, if they occured in-between our weather recording intervals... More about our weather records

Advertising

Harare Weather History for the Previous 24 Hours

Scroll right to see more
 ConditionsComfort  
Time TempWeatherWind HumidityBarometerVisibility
12:00 AM
Fri, Apr 29
57 °FClear.6 mph67%30.18 "Hg10 mi
11:00 PM
Thu, Apr 28
57 °FClear.6 mph72%30.18 "Hg10 mi
10:00 PM55 °FClear.6 mph77%30.18 "Hg10 mi
9:00 PM61 °FClear.7 mph59%30.15 "Hg10 mi
8:00 PM61 °FClear.7 mph63%30.15 "Hg10 mi
7:00 PM64 °FClear.5 mph60%30.15 "Hg10 mi
6:00 PM66 °FPassing clouds.3 mph56%30.15 "HgN/A
5:00 PM73 °FPassing clouds.3 mph38%30.12 "HgN/A
4:00 PM75 °FPassing clouds.3 mph36%30.12 "HgN/A
3:00 PM77 °FPassing clouds.3 mph34%30.12 "HgN/A
2:00 PM77 °FSunny.7 mph34%30.15 "Hg10 mi
1:00 PM75 °FPassing clouds.7 mph36%30.15 "HgN/A
12:00 PM75 °FSunny.5 mph39%30.18 "Hg10 mi
11:00 AM72 °FPassing clouds.6 mph41%30.21 "HgN/A
10:00 AM70 °FPassing clouds.7 mph50%30.24 "HgN/A
9:00 AM66 °FSunny.10 mph64%30.24 "Hg10 mi
8:00 AM64 °FPassing clouds.6 mph64%30.24 "HgN/A
7:00 AM54 °FSunny.5 mph100%30.24 "Hg10 mi
6:00 AM48 °FClear.5 mph100%30.21 "Hg10 mi
5:00 AM50 °FClear.3 mph100%30.21 "Hg10 mi
4:00 AM50 °FClear.5 mph100%30.21 "Hg10 mi
3:00 AM50 °FClear.3 mph100%30.21 "Hg10 mi
2:00 AM52 °FClear.3 mph100%30.24 "Hg10 mi
Weather by CustomWeather, © 2016

See weather overviewHow to use our weather pages